1998-067PL (43599 NORAD) Tracking and Keplerian Element Data

This shows tracking and keplerian element data for the satellite.

Feedback or suggestion? Click here.




ElementValue
Catalog43599
Name1998-067PL
Epoch Orbit82
Epoch Day234.88832511
Epoch Year2018
RAAN46.2819
Inclination51.6419
Eccentricity0.0005584
Argument of Perigee88.794
Mean Anonmoly271.3555
Mean Motion15.5435629
Decay Rate0.00037153
L11 43599U 98067PL 18234.88832511 .00037153 00000-0 56092-3 0 9998
L22 43599 51.6419 46.2819 0005584 88.7940 271.3555 15.54356290 824

Live tracking and technical data element details for 1998-067PL (NORAD 43599). 1998-067PL can be tracked NOW for your location showing map with azimuth and elevation plus other details from your city location.

Track the satellite on the map from your city or location and see movement details for azimuth, elevation, latitude, longitude, range, height, and movement on the map or in text.







IsCatalogInMostPopularTable: catalog: 43599, numindb: 28
Update: records affected: 1



GetName: 43599 1998-067PL

Hit Count: updated at: Fri, 16 Nov 2018 04:09:33 GMT